Wind_Speed
29 25 22 22 21 20 20 21 22 22 22 22 23 24 24 26 26 28 29 30 32 32 32 33 33 33 34 33 33 35 37 37 38 38 37 36 35 36 38 39 38 37 37 37 35 35 35 36 38 40 40 39 43 48 47 44 43 41 38 36 36 39 40 38 34 28 25 24 24 23 21 21 20 19 20 20 19 20 22 25 27 28 27 26 26
27 24 22 21 21 21 21 21 22 23 23 23 24 25 25 25 25 25 26 27 28 28 29 30 31 31 31 31 31 32 33 33 34 35 37 36 37 38 39 39 38 39 39 39 38 37 36 36 37 38 38 36 40 44 42 41 41 39 37 36 36 38 39 38 33 30 28 26 27 27 24 23 22 20 21 20 20 22 24 25 27 28 29 28 26
24 24 23 22 22 21 21 22 23 24 24 24 24 24 24 24 25 25 25 25 24 24 26 28 29 29 29 28 27 27 29 29 29 30 33 35 36 38 38 38 38 40 41 41 41 39 37 36 36 37 37 35 35 39 40 40 40 39 37 35 36 36 37 37 35 34 33 30 29 30 28 25 23 22 21 21 22 24 25 25 27 28 29 29 27
23 23 23 23 22 22 21 21 23 24 23 21 22 22 22 23 24 25 24 23 21 21 22 25 26 27 27 26 25 24 25 27 27 27 29 32 34 35 36 37 38 41 43 44 44 43 41 40 37 37 38 38 37 39 42 41 40 40 38 35 35 35 36 37 36 36 36 33 32 31 30 27 25 23 23 23 23 24 25 25 26 28 29 29 27
23 23 24 23 22 21 21 21 22 23 21 20 20 22 23 23 23 23 23 21 19 19 21 23 25 25 24 24 24 22 22 24 24 24 26 29 32 34 35 37 39 42 45 46 46 46 45 44 41 40 42 43 43 44 44 44 41 39 38 35 35 36 37 37 36 34 35 35 33 31 31 29 27 25 24 25 25 26 27 26 27 28 28 27 26
23 23 24 22 21 20 20 21 21 21 20 20 21 22 23 23 23 22 20 18 16 19 21 22 23 23 22 22 22 21 20 21 22 23 25 27 30 34 36 37 39 41 44 47 47 47 47 46 45 45 45 45 46 46 45 44 42 40 38 36 36 38 39 37 34 31 31 33 33 33 32 30 28 27 26 27 27 28 28 28 28 28 27 25 24
22 23 23 21 19 19 20 20 19 18 18 19 20 20 20 21 22 21 17 14 16 21 22 22 21 21 19 19 19 19 17 18 20 22 24 26 29 33 36 39 41 42 44 46 48 49 48 47 46 47 48 46 45 45 44 43 42 42 40 37 36 38 39 38 34 31 30 31 33 34 33 30 29 29 29 29 30 28 28 28 29 28 26 25 24
22 23 22 19 19 19 18 18 17 16 18 19 19 18 18 19 20 19 16 15 17 21 22 21 19 18 17 16 16 16 15 15 16 19 21 23 26 31 35 37 40 42 44 45 46 47 48 48 46 46 49 48 46 45 44 42 42 42 40 38 38 40 41 39 35 33 33 33 34 35 34 32 31 31 31 30 30 30 29 30 30 27 26 25 24
22 23 22 20 19 19 18 17 17 17 19 19 19 18 18 18 17 17 16 16 17 19 20 21 20 17 16 15 15 15 14 13 15 18 20 21 22 25 28 29 31 35 40 42 42 43 45 47 46 46 49 50 48 47 46 44 44 43 41 40 41 43 44 42 38 37 38 36 34 33 34 33 31 31 30 29 30 31 31 31 30 26 25 25 25
22 23 22 21 20 19 18 18 17 18 19 19 20 19 18 18 16 15 16 17 17 18 19 21 21 20 17 15 15 15 14 14 17 20 21 22 22 23 23 25 26 30 34 38 39 39 40 43 45 45 47 50 50 49 49 48 46 43 42 42 42 43 45 43 40 39 39 37 34 32 33 33 30 30 29 28 30 30 29 28 27 25 24 24 23
22 22 22 22 20 18 17 18 18 18 19 20 20 18 17 17 16 16 17 17 17 19 20 21 21 20 19 15 13 14 15 15 18 19 21 23 23 22 24 26 26 27 29 33 36 37 38 40 43 43 44 48 50 50 51 51 49 45 44 45 45 45 45 44 41 39 39 36 34 34 35 33 30 29 28 29 29 28 26 25 25 25 24 22 22
21 21 22 22 20 17 16 16 17 18 19 20 19 17 17 18 17 18 18 17 18 19 20 22 22 21 19 17 15 14 16 16 18 19 20 19 17 18 21 23 24 22 22 26 31 35 37 37 39 41 43 45 48 49 50 51 51 48 45 46 47 47 47 46 43 41 38 36 35 37 36 32 29 29 27 27 26 26 25 24 24 25 24 23 23
20 20 21 21 21 18 16 16 16 17 18 18 19 18 18 18 19 19 18 18 19 20 21 23 23 21 19 19 18 16 16 17 17 19 21 19 16 17 18 17 19 19 19 21 24 28 32 34 35 38 41 42 43 45 46 47 48 47 46 47 49 49 48 47 44 41 38 37 38 39 35 30 29 27 25 24 24 24 24 23 23 24 24 24 24
20 20 20 21 21 20 19 17 17 17 18 18 18 19 19 19 20 19 18 19 19 20 22 24 23 22 21 22 22 19 17 17 16 17 18 18 17 18 17 15 16 17 18 18 18 20 24 29 32 34 35 37 39 40 40 41 44 46 47 48 48 47 46 45 42 41 40 38 36 33 29 29 29 26 24 24 24 23 23 21 22 24 25 24 25
20 20 20 20 21 21 20 20 19 18 19 18 18 20 19 19 19 18 18 19 20 21 22 23 23 23 22 22 22 20 18 17 15 14 15 16 15 14 14 13 13 13 15 16 16 16 19 23 27 30 32 33 35 37 38 40 42 43 43 44 44 43 42 40 38 38 36 33 29 26 27 29 28 25 23 23 22 22 21 21 23 23 23 23 24
19 19 19 19 20 21 20 21 20 19 19 19 19 19 19 18 19 18 18 19 20 20 21 22 23 23 22 23 22 20 19 17 14 13 14 14 14 12 11 11 10 11 12 13 16 17 19 21 23 25 29 32 34 36 37 38 38 37 38 38 38 38 37 35 33 32 29 24 24 26 30 30 26 23 22 22 21 21 21 21 21 21 20 21 21
18 19 19 19 20 21 21 21 20 19 19 19 19 18 19 19 19 19 19 18 19 19 21 22 22 22 22 24 24 21 18 16 13 12 13 14 12 11 11 11 10 9 7 7 14 16 17 20 21 21 24 27 31 33 33 33 34 34 36 37 38 39 37 35 34 32 26 22 26 29 30 28 24 22 21 21 21 21 21 19 18 18 19 20 19
18 18 18 18 19 21 22 22 20 19 19 19 19 18 18 19 18 19 19 19 19 19 19 20 20 21 21 24 25 22 18 16 14 12 13 13 10 8 8 8 4 1 2 2 11 16 15 16 18 19 21 24 27 29 29 30 30 29 29 31 34 35 35 33 31 28 25 25 28 28 26 25 25 23 21 20 22 22 19 18 18 18 18 18 17
18 17 17 17 18 20 22 23 22 19 18 19 19 18 18 18 17 17 19 20 20 20 19 19 19 20 21 23 25 23 19 16 14 12 12 13 11 5 2 4 3 3 2 1 8 15 16 15 17 19 21 22 24 26 27 27 24 23 23 23 24 25 25 25 25 25 26 27 26 25 25 26 25 24 22 22 23 23 21 20 20 19 18 18 17
18 18 17 17 18 19 21 23 22 19 18 18 18 18 18 18 17 17 18 20 20 20 20 19 19 19 19 21 25 24 21 19 15 12 13 14 11 7 4 1 4 5 4 3 3 11 15 18 19 19 18 17 18 21 23 22 21 21 21 21 20 20 21 23 25 26 26 26 25 25 26 25 25 25 25 24 24 23 22 22 21 19 18 19 19
17 16 16 17 18 18 20 21 20 19 18 17 17 17 18 18 17 17 18 19 19 20 21 21 19 19 18 19 22 23 23 23 19 14 14 13 8 7 9 7 1 3 6 7 4 3 7 12 15 14 14 16 19 20 19 19 19 20 19 19 19 19 20 23 26 25 24 24 25 25 25 25 24 24 25 24 24 24 22 21 20 19 20 20 20
14 13 14 16 17 17 18 18 18 17 17 16 16 17 18 19 19 19 19 19 19 20 21 21 21 20 19 18 19 21 22 23 21 18 16 15 11 9 9 8 5 2 4 7 6 6 7 7 7 7 8 12 16 17 15 15 16 17 17 17 17 17 18 21 23 23 22 23 24 25 24 23 23 24 24 25 24 23 21 20 20 20 20 22 22
13 11 12 14 15 15 16 16 16 16 15 15 16 17 18 19 20 20 21 21 20 20 20 20 20 20 20 18 17 18 20 20 20 19 19 17 15 13 9 7 8 7 2 3 5 7 8 9 9 9 9 10 12 15 15 14 14 14 14 15 15 15 17 21 23 23 23 25 26 25 24 23 22 23 24 24 24 23 22 21 21 21 22 23 23
13 11 12 14 15 15 16 16 16 15 14 14 15 17 18 19 19 20 21 21 20 20 20 20 19 19 19 18 16 15 17 18 18 18 18 18 17 16 14 12 10 9 8 5 3 5 7 9 11 12 12 12 12 14 16 17 17 16 16 16 15 16 20 25 26 26 26 27 27 26 24 24 23 23 22 23 23 23 23 24 24 24 24 24 24
13 11 12 14 15 16 17 17 15 14 14 14 15 16 17 18 19 19 20 20 20 20 20 20 19 18 17 16 14 13 14 16 16 15 15 16 16 16 15 15 14 12 11 9 6 4 2 3 7 11 13 15 16 17 18 19 20 19 19 18 19 20 23 26 27 27 27 26 25 24 23 23 23 23 22 22 23 24 25 26 26 25 25 24 24
15 12 11 12 14 16 17 16 12 11 12 14 14 15 17 17 17 18 18 19 20 20 19 20 19 17 16 14 13 13 13 13 13 13 13 13 14 14 14 13 13 13 12 11 9 7 5 4 1 3 6 9 14 18 20 22 23 23 23 22 22 24 26 27 27 27 26 24 23 22 22 23 23 24 24 25 24 24 25 25 26 26 24 22 22
16 13 11 13 15 16 16 13 10 9 10 12 13 14 15 15 16 17 18 18 19 19 19 19 18 17 16 14 13 13 12 11 10 11 12 12 11 11 11 11 11 10 9 9 9 8 7 6 4 2 2 3 6 9 13 17 20 22 23 23 23 24 25 25 24 24 25 24 24 22 22 23 23 24 25 25 24 23 23 23 24 25 25 23 21
18 15 13 15 16 16 13 11 10 9 10 11 12 13 13 13 14 16 17 17 18 18 19 19 18 16 16 15 13 12 12 12 11 10 11 12 11 10 10 9 9 8 7 6 6 6 7 7 6 5 3 2 3 5 7 9 11 14 16 18 19 20 20 19 19 20 22 22 22 21 22 22 22 22 22 23 22 22 22 22 22 23 25 25 23
18 17 15 16 17 15 11 9 10 10 10 11 11 12 12 13 13 13 15 16 17 17 19 20 20 18 16 15 14 13 12 12 12 12 11 11 11 11 10 9 8 7 7 6 5 4 4 5 5 6 5 3 2 2 4 5 7 9 10 11 12 14 15 16 17 18 18 18 18 19 19 19 19 20 20 20 21 22 22 22 22 22 23 24 24
17 16 15 16 17 16 12 10 9 10 11 10 10 10 12 14 14 14 14 14 16 17 19 20 21 20 18 16 14 13 12 12 12 12 12 12 11 11 11 10 9 8 7 7 6 5 4 3 3 4 3 3 2 1 1 2 4 6 7 9 10 11 14 16 17 19 20 20 19 19 18 18 18 17 17 18 19 20 21 21 22 23 23 24 24
15 15 16 17 17 17 15 12 11 11 12 12 11 10 11 13 14 16 16 16 16 18 19 20 20 20 20 18 15 12 11 11 11 11 11 11 11 11 10 10 10 10 9 8 7 6 5 4 3 3 3 2 1 1 1 2 2 3 4 5 6 7 10 13 15 18 20 21 22 21 20 19 18 17 16 16 17 18 19 20 21 23 24 25 26
16 16 16 17 17 17 17 15 14 13 14 14 13 13 14 14 14 15 16 18 18 18 18 18 18 18 19 19 18 15 12 10 10 10 10 10 10 10 10 10 10 10 10 9 9 8 8 7 7 7 6 5 4 3 3 3 4 3 3 4 5 6 7 8 10 12 15 17 19 21 20 19 19 18 18 18 18 18 18 18 19 21 22 24 25
16 15 15 16 17 18 18 18 16 15 15 15 15 15 16 17 16 15 15 16 17 18 18 18 17 17 17 17 18 18 16 13 10 10 10 10 10 10 9 9 9 8 8 9 9 9 9 9 9 9 8 7 7 6 6 6 6 6 6 6 7 6 6 7 8 9 10 12 14 16 17 17 17 18 18 19 19 19 19 18 18 19 20 21 23
16 16 16 17 17 18 18 18 17 15 15 15 16 16 17 18 18 17 16 15 15 17 18 18 17 16 16 16 16 17 17 16 14 12 11 10 10 10 9 8 8 8 7 7 8 9 9 9 9 9 9 9 9 9 9 9 9 9 9 10 9 8 7 7 7 9 9 10 11 12 13 13 14 15 16 17 17 18 18 18 19 19 20 20 21
16 17 17 18 18 18 19 18 17 16 15 16 16 17 18 18 17 16 18 19 18 18 18 18 17 16 15 16 17 17 17 18 18 17 15 13 11 10 9 8 7 7 7 7 7 7 8 8 8 9 9 10 10 10 10 10 10 10 11 11 11 10 9 9 8 9 10 9 9 10 11 12 13 13 14 14 15 15 16 17 18 19 19 20 20
16 16 17 18 18 18 19 19 18 17 17 17 18 19 19 19 18 18 19 20 20 19 19 19 19 18 17 17 17 18 18 18 18 19 19 17 14 12 11 9 7 7 6 7 7 7 7 7 7 8 9 10 10 11 10 10 11 11 12 12 12 12 13 13 13 12 12 11 10 11 11 12 13 14 14 14 14 14 14 15 16 17 18 19 20
17 17 17 18 18 18 19 19 18 18 18 18 19 19 19 20 20 21 21 20 19 19 19 20 20 20 20 19 18 17 17 18 19 20 20 19 18 16 14 12 11 9 8 8 8 8 8 7 7 7 8 9 9 10 10 11 12 12 13 14 14 15 16 16 15 15 15 14 13 13 13 13 14 14 15 15 15 16 16 16 16 17 18 19 19
18 18 18 18 19 19 19 19 19 19 19 19 19 19 19 19 19 19 19 19 19 19 19 19 19 20 20 20 19 18 17 18 20 21 21 21 20 18 16 15 14 13 13 13 12 11 10 9 9 9 9 9 9 9 10 11 12 14 15 16 16 17 18 18 17 17 17 17 16 15 15 15 16 16 16 17 18 18 19 19 19 19 20 20 21
20 19 19 19 20 20 20 20 20 20 20 19 19 19 19 19 19 19 19 19 19 18 17 16 16 17 18 19 20 20 20 20 21 22 22 22 21 20 18 17 16 15 15 14 15 14 13 12 12 11 11 11 11 11 11 11 12 13 15 17 17 18 20 20 20 20 20 20 19 18 17 17 17 18 18 19 20 20 21 21 21 21 21 22 22
21 19 17 17 19 21 21 21 20 19 19 18 18 18 18 18 18 18 19 19 18 18 17 16 15 15 15 16 18 20 21 22 23 23 23 23 22 21 21 20 19 19 17 16 15 15 15 16 16 16 16 16 16 16 15 14 13 13 14 15 16 17 19 21 21 21 21 21 20 19 19 18 19 19 19 20 21 22 22 23 23 23 22 23 23
20 18 15 15 18 19 19 19 19 18 17 16 16 16 16 15 15 15 16 16 17 17 17 17 17 16 16 15 16 17 18 20 22 24 24 24 24 23 23 22 21 21 21 20 19 18 18 19 20 20 20 20 20 20 19 17 16 16 16 17 17 18 19 20 21 21 21 21 21 21 21 21 21 21 21 22 22 23 23 24 24 24 23 23 24
18 17 17 17 18 18 17 17 17 16 16 15 15 15 15 15 15 16 17 19 20 20 19 19 19 18 17 17 17 17 18 19 20 22 23 25 26 26 27 27 25 24 23 23 23 23 23 23 23 23 24 23 23 22 22 21 21 21 21 21 21 21 21 22 22 22 22 22 22 23 23 23 23 23 23 23 24 24 24 25 25 25 23 22 22
16 16 17 17 17 17 16 16 15 16 17 17 17 17 17 18 19 20 21 22 22 23 23 23 23 22 21 20 20 19 20 20 21 22 23 24 26 27 28 29 28 27 26 26 26 27 27 27 27 27 26 26 25 25 25 25 25 26 26 25 25 24 24 24 24 24 23 23 23 23 23 23 23 23 24 24 24 24 24 24 25 25 24 23 24
15 15 15 15 15 15 15 16 16 17 19 20 21 21 21 22 23 23 23 24 25 25 26 26 26 26 25 25 24 23 22 21 22 22 23 24 26 27 28 29 29 30 30 30 29 29 29 29 29 29 29 29 28 28 28 28 29 29 29 29 28 27 26 26 27 27 26 25 25 24 23 23 23 24 24 25 25 24 24 23 24 24 25 25 26
15 15 15 15 15 15 16 16 17 19 20 22 23 23 24 25 26 27 27 28 28 27 27 27 27 27 27 27 27 27 26 25 24 24 25 25 26 27 28 28 29 30 32 33 33 33 32 31 31 31 31 31 30 30 30 30 30 30 30 30 30 29 29 28 28 29 29 28 27 25 24 24 24 24 25 25 25 25 24 24 24 25 25 26 26
15 16 16 16 16 16 17 18 19 21 22 24 25 26 27 27 28 29 29 29 29 29 28 28 27 27 28 28 28 28 28 28 28 28 27 28 28 28 29 29 29 29 30 31 32 33 33 33 32 32 32 32 31 31 30 30 31 31 31 31 31 31 31 30 30 30 31 30 29 28 26 25 25 25 25 26 26 26 26 26 26 26 27 27 27
14 15 16 16 18 19 21 22 23 24 25 26 27 27 28 28 29 30 31 31 31 31 31 30 30 29 29 28 29 29 30 30 30 30 30 30 30 30 29 28 28 28 29 29 30 30 30 30 31 31 31 31 31 31 31 32 32 32 32 33 34 33 32 31 30 30 31 31 30 30 29 27 26 26 27 27 27 27 27 28 29 29 29 29 29
15 16 17 19 21 23 24 25 25 25 26 27 28 29 29 30 30 31 31 31 30 30 30 30 31 30 30 29 29 30 30 30 31 31 31 31 32 32 30 29 28 28 29 29 29 28 28 27 27 28 29 30 31 31 32 32 33 32 32 33 34 34 33 31 30 30 30 31 31 31 31 30 29 28 28 28 28 28 28 28 29 30 31 31 31
19 20 21 22 23 24 24 25 26 26 27 27 28 28 28 28 28 27 27 26 26 27 27 28 28 28 28 29 29 29 29 29 29 30 30 31 32 33 33 33 32 30 29 29 29 30 29 28 27 26 27 30 31 31 32 32 33 34 33 32 32 32 31 31 31 31 31 32 32 32 32 32 31 31 31 31 31 30 30 30 31 31 32 32 31
22 22 22 22 23 24 25 26 27 27 26 24 23 22 23 24 24 24 23 23 23 23 23 24 24 25 25 26 26 27 27 27 27 28 29 29 30 31 32 33 33 33 32 32 32 32 31 30 29 27 27 28 30 31 31 32 33 35 36 36 35 34 34 34 33 32 32 33 34 35 35 35 35 34 34 35 35 34 32 32 31 31 30 29 28
22 22 23 23 24 25 26 26 25 24 22 21 20 19 20 21 21 21 20 20 20 20 21 20 20 21 21 22 23 23 23 23 24 26 27 27 28 29 29 30 31 33 34 36 37 37 36 35 35 34 33 33 33 33 33 32 32 31 32 33 34 35 36 37 37 36 35 35 36 38 39 40 39 38 38 39 39 37 36 34 33 31 30 28 27
Wind_Direction
327 325 320 313 309 305 300 297 296 299 301 303 303 301 299 297 294 292 289 286 283 280 277 276 278 279 278 276 272 266 262 260 258 256 251 249 249 247 246 245 245 246 248 247 246 248 247 243 241 242 246 246 233 225 230 232 228 230 235 235 238 241 242 241 240 233 224 225 233 240 250 261 270 282 288 287 284 285 283 277 271 267 265 262 260
328 327 323 316 311 307 303 301 300 301 304 307 308 306 303 301 300 299 297 293 290 286 282 279 280 281 279 276 274 270 265 259 256 255 251 247 245 246 247 247 248 248 250 252 251 249 246 242 239 240 245 243 230 224 227 227 226 231 234 235 238 240 242 243 244 240 231 226 233 239 247 258 270 281 287 286 283 285 289 285 276 269 265 262 260
329 328 325 319 315 310 307 304 304 306 310 311 311 308 303 299 299 300 298 295 293 292 288 285 284 283 280 277 274 271 266 258 254 254 252 247 244 245 247 248 250 250 248 248 249 247 245 242 237 237 241 238 228 224 226 226 230 234 233 234 238 240 240 241 241 243 238 230 231 238 244 254 266 276 282 284 283 284 287 286 279 272 268 264 261
330 327 324 322 319 315 312 309 308 310 313 314 313 311 306 301 300 301 298 294 298 301 296 292 290 287 284 279 273 267 260 253 249 248 249 249 247 248 249 248 250 251 248 246 245 245 245 243 238 235 236 234 228 226 229 230 231 233 231 232 235 236 237 237 239 242 240 233 230 237 245 253 263 272 278 283 284 283 283 282 277 271 267 265 263
329 326 325 325 324 320 317 315 312 311 312 315 315 314 310 305 306 307 297 289 301 311 304 297 293 290 287 282 275 270 262 257 254 247 246 250 252 252 252 251 252 253 253 251 248 247 246 244 240 234 231 230 228 227 229 230 230 231 231 230 232 233 233 234 238 240 240 237 235 237 243 252 261 267 274 281 284 285 282 277 272 267 263 263 263
326 325 325 327 327 325 321 318 314 313 315 318 318 317 313 311 315 316 301 290 305 315 309 302 295 291 288 281 278 279 271 263 262 257 252 254 256 257 256 255 255 255 255 254 251 249 247 244 241 237 233 231 228 227 228 229 228 228 230 230 232 233 232 233 237 240 241 242 240 238 242 251 259 263 269 277 284 286 282 274 269 265 262 260 261
326 326 328 330 329 327 325 323 321 323 326 326 325 324 322 324 329 326 307 298 314 318 314 311 304 296 289 279 277 283 278 265 260 260 261 261 261 262 260 258 256 255 255 254 252 250 248 245 243 239 236 234 231 229 228 228 228 228 228 230 233 235 234 232 234 238 243 244 241 240 243 249 256 261 267 275 282 286 283 274 266 262 260 258 258
328 329 330 331 330 328 328 329 332 337 337 333 331 331 331 336 341 336 320 309 315 318 318 321 318 307 295 284 280 281 278 271 265 263 265 266 266 264 260 258 257 255 254 253 250 248 246 246 245 241 236 235 233 231 230 229 229 228 227 228 231 235 236 232 232 237 242 244 245 244 244 248 255 261 267 274 282 285 281 271 262 257 257 257 255
331 333 332 330 329 328 328 331 336 342 343 340 335 333 335 337 337 336 326 312 307 311 321 330 330 321 304 288 282 278 273 272 274 274 274 272 271 268 261 258 260 259 256 252 248 245 243 244 245 241 236 235 235 233 230 229 229 229 228 228 229 233 234 233 233 238 242 245 248 247 247 250 257 262 268 277 284 283 275 265 258 253 254 255 254
331 335 336 333 330 328 328 329 331 335 339 341 338 336 337 335 331 328 322 315 311 316 328 335 336 333 319 295 281 277 271 266 268 274 279 276 274 274 267 264 269 267 257 250 246 243 243 243 243 240 235 234 234 232 230 229 229 230 230 230 230 231 232 233 235 239 241 243 245 247 249 253 259 264 271 280 283 276 266 258 253 249 250 255 256
330 335 339 339 335 331 329 329 329 330 330 334 336 338 339 337 333 327 322 323 326 329 336 341 341 340 332 318 300 288 280 273 266 271 280 276 271 276 273 264 268 268 254 245 242 241 243 243 240 236 233 231 231 230 229 229 230 230 230 231 232 231 231 233 234 237 239 241 243 245 248 253 261 268 276 280 276 265 254 248 247 248 253 257 257
328 334 340 341 339 336 333 331 331 329 328 331 334 335 339 340 337 332 328 329 335 338 343 348 349 346 340 334 326 305 289 283 275 279 291 285 268 280 282 264 257 259 251 241 237 236 238 237 233 229 229 229 229 228 229 229 229 228 230 231 231 231 231 233 234 236 239 242 243 243 246 253 264 271 276 275 265 253 246 244 245 248 254 258 258
328 333 338 339 338 338 336 332 330 326 325 329 330 331 337 339 335 334 334 333 337 342 349 353 355 353 347 343 337 319 299 293 284 282 294 296 281 281 286 269 255 253 249 245 241 236 233 229 224 223 224 225 225 224 225 226 225 225 228 230 229 229 230 231 233 236 239 241 241 239 242 253 265 270 269 262 250 241 242 243 243 246 252 257 257
327 332 335 334 335 336 335 331 327 323 322 324 324 326 332 335 334 334 333 334 338 344 350 354 356 356 353 349 343 333 318 308 299 288 291 297 289 279 277 277 269 256 246 242 238 233 229 223 219 221 222 221 221 220 218 218 220 223 226 229 229 228 228 230 233 236 236 234 235 236 242 254 261 260 256 248 237 234 238 240 240 245 250 254 251
327 330 332 331 332 333 332 329 323 319 318 318 319 322 327 332 334 334 332 334 339 344 348 353 356 357 356 351 345 339 331 322 312 303 297 296 296 288 280 283 279 260 244 233 223 221 220 215 213 217 219 218 217 215 211 211 216 221 225 227 225 223 225 230 234 235 230 225 229 236 245 251 251 248 246 240 231 229 234 238 241 245 248 248 244
325 328 329 330 331 331 329 326 321 315 312 315 318 321 325 329 332 333 334 336 338 341 345 350 354 356 354 348 342 337 334 328 316 308 306 302 298 294 290 295 288 267 249 227 213 213 215 211 208 209 212 213 211 211 211 212 216 220 221 220 218 219 225 226 223 221 218 217 226 237 243 245 243 241 239 233 225 226 233 237 239 241 242 241 238
322 326 328 328 331 332 331 327 322 316 313 315 319 322 324 327 329 329 331 336 337 338 343 347 350 352 351 347 346 345 344 340 327 313 312 313 307 298 300 303 284 265 266 229 205 205 207 207 207 207 208 207 207 209 212 214 217 221 221 219 218 220 221 217 212 212 215 223 233 238 241 241 238 235 231 224 220 225 233 238 237 237 238 237 235
316 319 323 324 327 332 333 329 324 319 315 315 317 320 321 324 326 325 327 334 338 336 338 343 345 348 350 349 350 352 352 352 349 332 316 320 327 314 299 304 298 255 317 234 198 199 203 203 202 203 203 203 206 208 208 207 207 207 208 209 210 210 207 204 204 208 218 229 236 237 238 238 234 229 222 217 218 223 231 236 235 234 233 230 228
308 310 315 319 323 328 329 328 325 321 317 316 316 318 319 320 322 325 327 333 336 333 333 336 338 343 348 348 351 354 355 355 358 351 339 346 3 15 246 257 338 27 24 134 169 178 185 187 187 188 189 191 195 194 191 190 185 179 179 184 187 189 191 193 200 210 221 229 232 231 231 231 227 222 217 216 220 225 231 233 231 228 224 222 220
303 304 309 315 319 322 323 323 323 321 316 315 315 315 316 316 318 323 327 330 332 332 331 330 331 337 342 343 347 354 1 3 1 357 0 4 12 37 71 196 284 291 285 292 147 150 149 146 151 158 160 160 163 166 173 177 171 166 172 180 183 186 193 199 206 213 219 222 222 223 223 220 217 216 216 218 222 227 230 231 229 224 219 220 220
305 305 308 312 315 317 317 316 317 316 314 314 314 312 313 314 314 318 324 327 329 332 332 329 328 333 337 339 342 347 356 4 5 2 7 9 1 10 26 31 40 223 248 270 269 193 151 136 136 140 146 154 157 157 163 169 168 169 176 183 188 195 202 208 209 211 214 216 215 214 213 212 211 213 216 217 220 223 226 230 231 228 223 223 225
312 316 317 314 313 315 315 313 312 312 312 313 311 310 313 315 315 317 321 323 324 326 327 327 327 330 335 338 339 338 343 355 4 9 14 17 16 11 8 13 41 92 227 246 244 235 235 226 206 190 180 177 174 172 173 174 176 180 183 187 193 199 207 212 210 208 209 209 207 206 208 210 211 213 214 216 219 224 229 235 238 235 231 229 230
317 332 331 320 316 317 319 317 313 310 310 311 310 310 313 315 315 315 318 320 321 320 319 319 322 327 333 338 339 335 335 343 355 7 14 19 23 26 22 15 25 34 11 269 243 234 240 245 238 225 212 198 190 192 197 197 196 196 197 198 198 200 209 213 210 208 207 204 202 204 208 210 212 213 214 217 222 228 232 237 239 238 237 235 234
315 332 337 326 319 322 327 323 314 309 309 311 312 312 313 313 311 313 316 317 319 319 316 315 318 322 328 335 339 336 334 337 347 359 7 12 20 28 34 35 34 35 34 21 325 267 249 238 233 233 234 230 217 208 206 206 209 212 215 214 210 210 214 212 207 205 207 207 206 207 207 210 214 216 217 220 224 227 229 231 234 236 238 237 235
311 326 337 329 322 326 328 321 312 307 307 310 315 319 319 316 313 314 318 318 319 322 320 317 318 320 322 327 334 336 335 336 343 353 0 5 10 18 26 32 34 36 38 37 30 15 346 241 224 224 227 227 225 220 215 213 213 215 216 217 218 220 220 214 207 205 206 206 210 212 211 212 215 218 222 224 224 225 228 229 231 233 236 238 237
308 321 330 328 325 326 324 318 311 306 306 312 321 326 326 325 323 323 325 325 326 328 327 322 320 321 321 321 326 331 334 334 337 346 354 359 2 6 13 20 26 28 31 36 39 39 34 22 338 233 220 218 215 212 209 210 211 213 215 218 219 220 219 215 211 209 209 210 214 218 218 219 218 220 225 229 228 229 231 230 230 232 233 234 235
305 312 317 321 322 319 318 318 317 315 315 320 326 328 327 328 328 328 329 330 330 330 329 327 326 325 326 326 324 323 327 330 333 339 347 352 355 357 1 7 12 15 21 30 36 38 40 38 27 352 288 252 230 216 210 206 204 204 207 210 213 217 220 218 214 214 217 219 221 221 220 221 222 222 226 230 232 234 236 234 231 229 228 229 230
298 302 307 313 314 310 310 315 319 323 326 325 325 324 321 319 322 326 327 329 331 330 327 326 326 326 328 331 330 325 321 320 321 325 332 337 339 342 346 353 359 5 12 24 31 31 33 36 34 23 359 291 254 242 234 225 216 210 207 205 205 209 215 217 216 216 218 218 218 217 218 221 225 227 229 232 234 237 239 237 233 229 227 229 233
294 298 304 309 307 305 304 306 311 318 324 321 319 318 313 309 312 318 320 322 326 327 324 321 320 322 323 326 330 331 327 322 318 316 317 319 321 322 326 330 336 344 353 3 11 19 23 25 25 22 16 6 324 267 246 240 235 232 231 228 223 219 218 219 220 219 220 221 220 219 220 224 229 232 234 236 238 240 240 238 235 234 232 232 235
294 295 299 301 301 300 299 296 298 306 311 310 309 311 312 311 311 311 313 315 319 320 319 316 314 314 315 317 322 328 330 328 326 323 320 318 313 310 309 311 313 317 323 330 336 344 353 2 9 12 13 17 21 3 261 246 245 243 242 241 240 239 235 232 231 230 229 229 229 229 230 231 234 236 238 240 244 246 246 243 240 238 238 238 241
292 288 289 295 298 296 293 288 285 289 295 298 299 302 307 309 310 309 309 311 313 315 316 315 312 310 310 310 312 316 321 324 325 325 323 321 318 312 306 301 299 300 301 303 305 303 299 299 303 307 309 312 310 188 181 188 221 250 256 253 251 252 247 241 238 236 234 233 233 234 235 235 236 237 239 240 243 246 246 243 240 239 239 240 243
288 284 285 290 292 291 291 292 288 283 284 288 292 298 303 305 304 304 305 307 309 310 311 311 310 309 309 309 308 308 310 312 314 317 320 322 322 320 315 307 301 299 296 293 289 286 283 278 274 272 274 274 266 250 230 209 195 196 223 254 263 265 263 257 248 242 240 238 236 235 235 234 233 235 237 240 243 245 244 241 239 238 239 240 242
281 281 282 285 288 292 296 298 296 288 282 281 284 291 299 304 304 300 298 301 304 304 304 305 306 306 307 307 307 307 307 306 306 307 309 314 319 321 320 315 310 305 300 295 288 281 277 272 268 265 263 264 263 260 255 248 236 217 206 216 231 240 245 248 246 242 241 239 236 234 234 234 234 237 239 242 244 245 245 243 240 238 238 239 240
272 272 275 281 287 291 292 294 293 287 279 277 280 287 295 301 303 300 296 293 291 290 293 297 300 302 304 305 306 306 305 306 306 302 297 297 302 309 316 319 314 306 300 293 288 284 280 275 270 264 257 252 252 255 255 255 255 248 233 227 230 234 232 232 231 228 229 232 234 235 236 238 237 237 237 239 240 241 241 241 241 240 240 240 240
273 271 275 281 286 289 292 295 297 294 287 282 283 289 295 298 298 297 297 294 289 285 285 288 290 291 294 299 302 303 303 304 305 302 296 290 285 287 295 306 312 309 301 289 280 278 278 278 276 273 267 258 252 251 251 252 257 260 259 256 256 257 257 255 246 232 224 226 230 231 232 234 235 233 233 234 235 236 239 242 244 246 246 246 245
277 278 282 286 288 291 295 297 299 297 292 286 286 291 298 300 298 296 296 296 294 291 289 288 288 287 287 290 295 297 298 299 300 299 297 293 287 282 278 279 287 295 295 287 278 274 274 275 277 276 274 268 261 255 251 251 255 260 264 267 269 270 269 269 265 253 243 240 242 240 237 235 234 234 234 234 234 236 240 245 249 251 252 252 252
279 280 282 284 286 289 292 292 291 291 290 290 294 298 302 303 300 297 296 297 298 296 294 293 291 289 286 285 287 290 291 292 293 294 294 293 293 290 282 274 270 271 272 270 267 264 264 268 272 274 271 265 260 257 255 255 259 263 266 268 269 270 269 269 269 267 262 258 256 253 249 245 242 240 239 240 242 244 246 249 251 253 254 255 255
275 275 276 279 283 286 287 288 290 293 296 298 301 302 302 302 300 298 299 301 303 301 298 297 294 290 285 281 280 282 284 285 286 288 290 291 291 291 288 283 276 272 272 271 269 266 263 260 259 261 262 257 252 249 248 250 255 260 263 264 265 265 266 267 268 269 268 266 262 256 250 247 246 245 246 249 254 259 262 263 263 262 262 261 260
268 267 268 273 279 283 286 288 292 296 297 298 298 298 298 297 297 299 302 304 304 303 301 300 297 292 286 281 278 279 281 282 282 283 285 286 285 284 283 283 280 276 274 273 273 273 272 267 262 260 260 259 255 247 243 244 248 253 257 258 259 259 261 264 265 265 264 264 261 257 253 250 249 249 251 254 258 263 267 269 269 269 268 268 267
276 272 269 272 279 284 287 291 293 296 297 298 299 298 298 297 297 298 301 303 303 304 305 304 302 297 290 283 278 277 277 280 281 281 279 279 279 278 278 277 277 274 271 268 266 266 267 268 269 269 267 265 263 258 254 251 251 252 252 253 255 255 257 260 263 262 261 260 257 255 252 251 251 252 254 256 259 261 263 265 265 264 263 263 264
285 284 287 290 290 290 291 294 296 298 299 299 300 300 301 302 303 303 304 305 305 306 306 305 304 302 297 290 285 280 277 276 277 277 276 274 273 274 275 275 274 272 267 263 260 259 261 264 267 269 268 265 264 264 263 260 258 256 254 253 255 256 256 258 260 261 261 262 261 260 259 258 259 259 258 258 259 259 260 261 261 260 260 261 262
291 293 296 295 291 291 295 297 298 298 296 296 297 298 300 303 305 306 307 308 306 306 305 304 303 302 298 294 290 287 283 279 275 273 272 272 271 273 275 276 274 270 266 262 259 258 259 261 262 263 263 262 262 263 264 263 262 261 259 256 255 256 258 260 263 264 265 266 268 270 271 272 272 271 269 266 264 263 262 261 261 260 259 259 261
294 294 294 292 292 294 296 296 296 296 294 294 295 295 295 297 299 300 301 301 301 301 301 300 298 297 294 292 289 286 283 281 277 274 271 269 268 269 271 274 274 272 269 267 263 260 258 258 259 259 259 258 259 261 262 264 264 264 263 261 259 258 259 260 262 263 263 264 266 268 271 273 274 275 274 272 270 267 265 264 264 263 260 257 257
295 295 295 295 295 294 292 291 290 290 289 289 290 291 292 293 293 292 293 293 294 295 295 294 293 291 289 287 286 285 282 279 277 276 275 272 270 268 267 268 270 271 271 271 270 266 261 257 256 256 256 257 259 260 262 263 264 264 265 265 265 263 262 262 261 260 260 259 260 262 263 265 267 269 269 270 270 268 267 265 265 265 264 262 261
296 298 298 296 292 289 287 285 283 282 283 285 287 289 290 290 290 290 291 291 291 291 290 289 288 287 286 284 282 281 280 277 275 274 275 276 276 274 270 267 265 265 267 270 271 269 264 259 256 254 253 255 257 260 261 262 262 263 264 265 265 265 265 264 261 258 256 256 257 258 259 260 262 264 264 264 264 265 265 265 265 265 266 266 266
295 296 295 293 291 289 288 287 286 286 286 287 288 289 290 290 290 291 291 291 290 290 288 287 285 283 282 281 280 279 277 276 275 274 274 274 274 275 274 270 266 264 265 266 266 265 262 259 257 256 255 255 256 257 259 260 260 261 262 263 264 265 265 264 261 258 256 256 258 260 261 261 261 261 262 261 261 262 263 264 266 266 266 266 266
293 291 289 287 288 288 289 290 291 291 291 291 291 291 290 291 291 290 290 289 288 287 286 285 283 281 279 278 278 277 277 276 275 275 275 274 273 274 274 273 270 267 266 266 264 262 260 258 257 258 258 258 258 259 260 260 261 261 261 262 262 261 258 256 254 253 253 256 259 261 261 261 261 261 262 262 263 264 265 265 266 267 266 265 265
290 288 287 287 288 289 290 291 291 291 291 291 291 291 291 291 291 290 289 289 288 287 286 284 282 281 279 277 276 276 276 276 277 277 277 276 275 274 272 271 269 269 269 269 268 266 264 262 261 261 260 259 259 260 260 260 260 260 261 262 262 259 255 253 251 250 251 254 257 259 259 259 260 261 263 263 264 265 266 266 266 267 266 265 264
292 292 292 291 291 291 291 291 291 291 291 291 292 293 294 294 293 293 293 293 292 291 289 287 285 284 282 280 279 278 277 276 276 276 277 277 277 275 273 271 270 268 268 269 269 268 267 266 265 264 263 261 258 256 255 254 255 257 258 260 261 261 258 256 255 252 251 252 254 256 257 258 259 260 261 262 262 263 263 265 266 267 266 265 264
295 295 294 293 293 294 294 293 293 294 295 296 296 296 296 296 296 297 297 297 296 295 293 292 291 291 289 287 285 283 281 279 278 276 275 275 276 275 275 274 272 269 267 266 267 267 267 266 265 264 265 264 261 257 252 249 248 249 250 252 254 256 257 258 258 256 253 253 254 255 255 256 256 257 259 260 261 261 260 260 261 262 262 262 262
296 296 295 295 295 295 296 296 298 300 302 302 301 300 298 297 298 299 299 299 297 297 297 297 297 296 295 293 291 289 287 284 281 278 276 274 274 274 274 274 273 272 270 270 269 269 269 268 267 266 266 266 266 265 263 260 255 251 248 247 247 248 248 249 250 249 248 250 252 254 254 254 253 253 254 256 258 259 258 255 253 253 254 254 254
Height
3134 3132 3130 3128 3126 3124 3123 3121 3120 3118 3117 3115 3114 3114 3113 3111 3110 3108 3107 3106 3105 3105 3105 3104 3103 3102 3101 3099 3099 3098 3097 3098 3098 3098 3099 3101 3101 3102 3102 3102 3102 3104 3105 3105 3108 3110 3111 3114 3116 3119 3122 3123 3124 3127 3130 3133 3135 3137 3138 3139 3140 3141 3142 3143 3146 3150 3153 3154 3155 3156 3156 3156 3156 3156 3156 3157 3157 3156 3156 3156 3156 3155 3155 3155 3156
3132 3129 3127 3125 3123 3122 3120 3119 3117 3116 3114 3113 3112 3110 3109 3108 3106 3105 3104 3103 3101 3100 3100 3099 3098 3096 3095 3094 3093 3092 3091 3092 3092 3092 3093 3094 3095 3095 3095 3096 3096 3098 3099 3099 3102 3105 3106 3108 3111 3114 3117 3119 3120 3122 3125 3127 3129 3132 3134 3134 3135 3138 3140 3142 3145 3147 3149 3151 3152 3152 3153 3153 3153 3153 3153 3153 3153 3153 3152 3152 3152 3152 3152 3152 3152
3130 3127 3125 3122 3121 3119 3118 3116 3115 3113 3112 3111 3109 3107 3106 3105 3103 3102 3100 3099 3098 3096 3095 3094 3093 3092 3090 3089 3088 3087 3086 3086 3087 3087 3087 3088 3089 3090 3090 3091 3091 3092 3093 3093 3096 3098 3100 3102 3105 3108 3111 3114 3116 3118 3120 3123 3125 3127 3129 3130 3131 3134 3137 3139 3141 3142 3144 3147 3148 3148 3149 3149 3149 3150 3149 3149 3149 3149 3148 3149 3148 3148 3149 3148 3149
3128 3125 3123 3120 3118 3117 3115 3114 3112 3110 3109 3108 3106 3104 3103 3101 3099 3098 3097 3095 3094 3092 3091 3089 3088 3087 3086 3085 3084 3083 3081 3081 3081 3082 3083 3083 3084 3084 3085 3086 3087 3087 3087 3088 3090 3091 3093 3096 3100 3103 3105 3107 3110 3113 3115 3118 3121 3122 3124 3126 3127 3130 3133 3134 3136 3138 3139 3142 3144 3145 3146 3146 3146 3146 3146 3145 3145 3145 3144 3145 3145 3145 3145 3145 3145
3126 3123 3120 3118 3116 3114 3113 3111 3109 3107 3106 3105 3104 3102 3100 3098 3096 3094 3093 3092 3091 3089 3087 3085 3084 3083 3081 3080 3079 3078 3077 3077 3077 3078 3079 3079 3079 3079 3080 3081 3082 3081 3081 3082 3084 3085 3086 3089 3094 3097 3098 3100 3103 3106 3109 3112 3115 3117 3119 3121 3123 3125 3128 3130 3131 3134 3136 3138 3141 3142 3142 3142 3143 3143 3142 3141 3141 3141 3141 3141 3141 3141 3141 3141 3141
3124 3121 3119 3116 3114 3113 3110 3109 3107 3105 3104 3103 3101 3099 3097 3095 3093 3091 3089 3089 3087 3085 3083 3082 3080 3078 3077 3076 3075 3074 3073 3073 3074 3074 3074 3074 3074 3073 3074 3075 3076 3076 3075 3076 3077 3079 3080 3082 3086 3089 3091 3093 3097 3099 3102 3106 3109 3112 3114 3117 3119 3121 3123 3125 3127 3129 3131 3134 3136 3138 3138 3139 3139 3139 3139 3138 3137 3137 3137 3137 3137 3138 3138 3138 3138
3122 3119 3117 3115 3113 3111 3109 3107 3105 3104 3102 3101 3099 3097 3095 3093 3091 3089 3087 3086 3085 3082 3080 3078 3076 3074 3073 3071 3071 3071 3071 3071 3070 3070 3070 3070 3069 3068 3068 3068 3068 3069 3068 3069 3070 3072 3074 3076 3079 3082 3084 3087 3091 3094 3096 3100 3103 3106 3109 3112 3115 3116 3118 3121 3123 3125 3126 3128 3131 3133 3134 3135 3135 3135 3135 3134 3134 3134 3134 3133 3134 3134 3134 3134 3134
3121 3118 3115 3113 3111 3109 3108 3106 3104 3103 3101 3099 3098 3096 3094 3092 3090 3088 3086 3085 3083 3080 3078 3075 3072 3071 3069 3068 3067 3067 3067 3067 3067 3066 3066 3065 3064 3062 3061 3061 3061 3061 3061 3062 3063 3064 3066 3069 3072 3075 3077 3080 3084 3088 3091 3094 3097 3100 3103 3106 3110 3112 3114 3116 3119 3121 3122 3124 3126 3128 3129 3130 3130 3131 3131 3130 3130 3130 3130 3129 3130 3131 3131 3131 3131
3119 3117 3114 3112 3110 3108 3107 3105 3103 3102 3100 3098 3096 3095 3093 3091 3089 3087 3086 3084 3082 3079 3076 3073 3070 3068 3066 3065 3064 3063 3063 3064 3064 3062 3061 3059 3058 3057 3056 3055 3055 3054 3054 3054 3055 3057 3059 3061 3065 3068 3071 3074 3078 3082 3085 3088 3092 3095 3098 3101 3104 3107 3110 3112 3114 3116 3118 3119 3121 3124 3124 3125 3126 3127 3127 3126 3126 3126 3126 3125 3126 3128 3128 3127 3127
3118 3115 3113 3111 3109 3107 3105 3103 3102 3100 3099 3098 3096 3094 3092 3090 3088 3086 3085 3083 3080 3078 3074 3071 3068 3066 3063 3062 3061 3061 3060 3060 3060 3058 3056 3055 3053 3052 3051 3050 3050 3048 3047 3047 3049 3051 3053 3055 3058 3062 3065 3068 3071 3075 3079 3082 3086 3090 3092 3095 3098 3102 3104 3107 3109 3111 3113 3115 3117 3119 3120 3121 3123 3123 3122 3122 3122 3121 3121 3121 3122 3124 3123 3124 3125
3116 3114 3112 3109 3107 3105 3103 3102 3100 3099 3098 3097 3095 3093 3091 3089 3087 3085 3083 3081 3078 3076 3073 3070 3067 3064 3062 3060 3059 3058 3057 3056 3055 3054 3052 3050 3049 3048 3046 3046 3045 3044 3042 3042 3043 3045 3047 3049 3051 3055 3058 3061 3064 3068 3073 3076 3080 3084 3087 3089 3093 3096 3098 3101 3104 3106 3108 3111 3113 3115 3115 3117 3119 3119 3118 3118 3117 3117 3117 3118 3118 3119 3119 3120 3121
3115 3113 3110 3108 3106 3104 3102 3100 3099 3097 3096 3095 3094 3092 3090 3088 3085 3083 3081 3079 3076 3074 3071 3068 3066 3063 3061 3059 3057 3056 3054 3053 3051 3050 3049 3047 3045 3044 3042 3041 3041 3040 3038 3038 3039 3040 3041 3043 3045 3049 3052 3055 3058 3062 3067 3070 3074 3078 3081 3084 3087 3089 3093 3096 3099 3101 3104 3107 3109 3110 3112 3114 3115 3115 3114 3114 3113 3113 3114 3114 3115 3115 3116 3116 3117
3113 3111 3109 3107 3104 3102 3101 3099 3097 3096 3095 3094 3092 3090 3089 3086 3084 3082 3080 3077 3075 3072 3070 3067 3064 3062 3060 3057 3055 3053 3051 3050 3048 3047 3047 3045 3043 3042 3040 3038 3038 3037 3036 3035 3035 3036 3037 3038 3041 3044 3047 3050 3053 3057 3061 3065 3069 3073 3076 3078 3080 3083 3087 3091 3094 3097 3099 3101 3103 3106 3108 3110 3111 3111 3110 3109 3109 3109 3110 3111 3111 3112 3112 3113 3114
3112 3110 3108 3106 3103 3101 3099 3098 3096 3095 3093 3092 3091 3089 3087 3085 3083 3081 3079 3077 3074 3071 3069 3066 3063 3061 3059 3057 3054 3052 3049 3048 3046 3045 3044 3043 3040 3039 3038 3036 3036 3035 3034 3033 3033 3033 3034 3035 3038 3041 3044 3046 3049 3052 3056 3060 3064 3068 3071 3073 3075 3079 3083 3087 3090 3092 3094 3096 3099 3102 3105 3106 3106 3106 3106 3105 3105 3106 3107 3107 3108 3109 3109 3110 3111
3111 3109 3107 3105 3102 3100 3098 3096 3095 3093 3092 3091 3089 3088 3086 3084 3082 3080 3078 3075 3073 3070 3068 3065 3063 3061 3059 3057 3054 3051 3048 3046 3044 3043 3041 3040 3038 3037 3035 3034 3032 3031 3031 3031 3031 3032 3032 3034 3036 3039 3041 3043 3046 3049 3052 3056 3060 3063 3065 3068 3071 3075 3079 3083 3086 3088 3090 3092 3095 3098 3100 3101 3101 3101 3101 3101 3102 3103 3103 3104 3104 3106 3107 3107 3108
3110 3108 3106 3104 3102 3099 3097 3095 3094 3092 3091 3089 3088 3087 3085 3083 3081 3079 3077 3075 3072 3070 3067 3065 3063 3061 3059 3056 3054 3050 3047 3045 3043 3041 3040 3038 3037 3035 3034 3032 3030 3029 3029 3028 3029 3030 3031 3032 3034 3036 3037 3040 3043 3047 3050 3053 3056 3059 3061 3064 3068 3072 3076 3079 3081 3084 3087 3088 3091 3094 3095 3096 3096 3097 3098 3099 3099 3100 3100 3101 3102 3103 3104 3104 3105
3109 3107 3105 3103 3101 3098 3096 3094 3092 3091 3089 3088 3087 3085 3084 3082 3080 3078 3076 3074 3072 3070 3067 3065 3063 3061 3058 3056 3053 3050 3047 3044 3042 3040 3039 3037 3036 3034 3033 3032 3031 3029 3028 3028 3028 3029 3030 3031 3033 3034 3036 3039 3042 3045 3048 3052 3054 3056 3058 3062 3065 3068 3072 3074 3077 3080 3083 3084 3087 3089 3091 3091 3092 3094 3095 3096 3096 3097 3098 3099 3100 3101 3101 3102 3103
3107 3106 3104 3102 3099 3097 3095 3093 3091 3090 3088 3087 3086 3084 3082 3081 3079 3077 3075 3073 3072 3070 3067 3065 3063 3061 3058 3056 3053 3050 3047 3044 3042 3040 3039 3037 3035 3034 3033 3033 3032 3030 3029 3028 3028 3028 3030 3031 3032 3034 3036 3038 3041 3043 3047 3050 3052 3053 3055 3058 3061 3064 3068 3070 3073 3077 3079 3081 3083 3085 3086 3088 3089 3091 3092 3093 3094 3095 3097 3097 3098 3099 3099 3100 3101
3105 3104 3102 3100 3098 3096 3094 3092 3090 3089 3087 3086 3084 3083 3081 3079 3078 3077 3075 3073 3071 3070 3067 3065 3063 3061 3059 3057 3054 3051 3048 3045 3043 3040 3039 3037 3036 3034 3033 3033 3033 3032 3031 3029 3028 3028 3030 3031 3032 3034 3036 3038 3040 3042 3045 3048 3050 3051 3053 3056 3059 3063 3066 3068 3071 3075 3077 3078 3080 3082 3083 3084 3086 3087 3089 3090 3091 3093 3094 3095 3096 3097 3098 3099 3100
3103 3102 3100 3098 3096 3094 3093 3091 3089 3087 3086 3084 3083 3081 3080 3078 3077 3075 3074 3072 3070 3069 3067 3065 3063 3062 3060 3058 3055 3053 3050 3047 3044 3041 3039 3038 3037 3035 3034 3033 3033 3033 3032 3032 3031 3030 3030 3031 3032 3034 3036 3037 3039 3041 3044 3047 3048 3050 3053 3056 3059 3062 3065 3067 3069 3072 3073 3075 3076 3078 3079 3080 3082 3084 3085 3087 3089 3090 3091 3093 3094 3095 3096 3097 3098
3101 3099 3098 3096 3094 3093 3091 3090 3088 3086 3084 3083 3082 3080 3079 3077 3076 3074 3073 3071 3070 3068 3066 3065 3063 3062 3061 3059 3057 3055 3052 3049 3046 3042 3040 3038 3037 3036 3035 3034 3034 3033 3033 3033 3033 3033 3032 3032 3033 3035 3037 3038 3039 3041 3044 3046 3048 3050 3053 3056 3058 3061 3063 3065 3066 3067 3069 3071 3072 3074 3076 3077 3079 3080 3082 3084 3086 3088 3089 3090 3092 3093 3094 3095 3096
3099 3097 3095 3094 3093 3091 3090 3088 3087 3085 3084 3082 3081 3079 3078 3077 3075 3073 3072 3071 3070 3068 3065 3064 3063 3062 3061 3060 3058 3056 3053 3051 3048 3045 3042 3039 3038 3037 3036 3035 3034 3034 3033 3033 3033 3034 3034 3035 3036 3037 3039 3040 3041 3042 3044 3045 3047 3049 3052 3054 3056 3058 3060 3062 3063 3064 3066 3068 3070 3072 3074 3075 3076 3078 3080 3082 3084 3086 3087 3088 3090 3091 3092 3093 3094
3097 3095 3094 3093 3091 3090 3088 3087 3085 3084 3083 3081 3080 3079 3077 3076 3074 3072 3071 3070 3069 3068 3065 3063 3062 3062 3061 3060 3058 3056 3054 3052 3050 3047 3044 3042 3040 3038 3037 3036 3035 3034 3034 3034 3033 3034 3035 3035 3036 3038 3039 3040 3041 3043 3043 3045 3046 3048 3050 3052 3054 3057 3058 3059 3060 3062 3063 3065 3067 3069 3071 3072 3074 3075 3077 3080 3081 3083 3084 3085 3087 3089 3090 3091 3092
3095 3094 3092 3091 3090 3088 3087 3086 3084 3083 3081 3080 3079 3077 3076 3075 3073 3072 3070 3069 3068 3067 3065 3063 3062 3061 3060 3059 3058 3057 3055 3053 3051 3049 3047 3044 3042 3040 3038 3037 3036 3035 3034 3034 3034 3034 3035 3035 3036 3037 3038 3039 3041 3042 3043 3044 3046 3047 3049 3051 3053 3055 3056 3056 3057 3059 3060 3062 3064 3066 3067 3069 3071 3073 3075 3076 3078 3079 3081 3083 3085 3086 3087 3088 3090
3093 3092 3090 3089 3088 3087 3086 3084 3083 3082 3080 3079 3078 3076 3075 3073 3072 3070 3069 3067 3066 3066 3064 3062 3061 3060 3059 3058 3057 3056 3055 3053 3052 3050 3048 3046 3044 3042 3040 3039 3038 3037 3036 3035 3035 3035 3035 3035 3035 3036 3037 3038 3040 3041 3042 3044 3045 3047 3048 3050 3052 3053 3053 3054 3055 3055 3057 3059 3061 3062 3064 3066 3068 3070 3072 3074 3075 3077 3078 3080 3082 3083 3084 3086 3087
3091 3090 3089 3088 3087 3086 3085 3083 3082 3080 3079 3078 3077 3075 3074 3072 3071 3069 3068 3066 3065 3064 3063 3061 3060 3059 3058 3057 3056 3055 3054 3053 3052 3051 3049 3048 3046 3044 3042 3041 3039 3039 3038 3037 3036 3036 3036 3036 3036 3037 3037 3038 3039 3040 3041 3042 3044 3046 3047 3049 3050 3050 3051 3051 3052 3052 3054 3056 3058 3059 3062 3063 3065 3068 3069 3071 3073 3074 3076 3077 3079 3080 3082 3083 3085
3089 3088 3087 3086 3085 3084 3084 3082 3081 3079 3078 3077 3076 3074 3073 3072 3070 3068 3067 3065 3064 3063 3062 3060 3059 3058 3057 3056 3055 3054 3053 3052 3051 3050 3049 3048 3047 3046 3044 3043 3041 3041 3040 3039 3038 3038 3037 3037 3037 3038 3038 3039 3039 3040 3040 3041 3042 3044 3045 3046 3047 3048 3049 3049 3050 3050 3052 3054 3056 3058 3059 3061 3062 3065 3066 3068 3070 3072 3073 3074 3076 3077 3079 3081 3082
3087 3086 3085 3084 3084 3083 3082 3081 3080 3078 3077 3076 3075 3073 3072 3071 3069 3067 3066 3064 3063 3061 3060 3059 3057 3056 3056 3055 3054 3053 3052 3051 3051 3050 3049 3048 3047 3047 3046 3044 3043 3042 3041 3041 3040 3040 3039 3039 3039 3039 3039 3039 3040 3040 3041 3042 3042 3043 3044 3045 3046 3047 3047 3048 3048 3049 3050 3052 3054 3056 3057 3059 3060 3062 3064 3065 3067 3069 3070 3071 3073 3074 3075 3077 3078
3085 3084 3084 3083 3082 3082 3081 3080 3078 3077 3076 3075 3074 3072 3070 3069 3068 3067 3065 3063 3062 3060 3059 3057 3056 3055 3054 3053 3053 3052 3051 3050 3050 3049 3048 3048 3047 3046 3046 3045 3044 3043 3042 3042 3041 3041 3040 3040 3040 3040 3040 3040 3041 3041 3041 3042 3042 3043 3044 3044 3045 3046 3047 3047 3048 3049 3050 3051 3052 3054 3055 3057 3058 3060 3062 3063 3065 3066 3067 3068 3069 3070 3072 3073 3074
3083 3082 3082 3081 3080 3080 3079 3078 3077 3076 3075 3074 3073 3071 3069 3068 3066 3065 3064 3062 3061 3059 3058 3056 3055 3054 3053 3052 3051 3051 3050 3050 3049 3048 3047 3046 3046 3045 3045 3045 3044 3044 3043 3042 3042 3041 3041 3041 3041 3041 3041 3042 3042 3042 3042 3043 3043 3043 3044 3044 3045 3046 3046 3047 3047 3048 3049 3050 3051 3053 3054 3055 3057 3058 3059 3061 3062 3063 3064 3065 3066 3067 3069 3070 3072
3080 3080 3080 3079 3078 3078 3077 3076 3076 3074 3073 3072 3071 3070 3069 3067 3065 3064 3062 3061 3060 3058 3056 3055 3054 3053 3052 3051 3050 3049 3049 3048 3048 3047 3046 3045 3045 3044 3044 3043 3043 3043 3043 3043 3042 3042 3042 3042 3042 3042 3042 3042 3042 3043 3043 3043 3044 3044 3044 3045 3045 3045 3046 3046 3047 3047 3048 3049 3050 3051 3052 3054 3055 3056 3057 3059 3060 3061 3062 3063 3063 3064 3066 3067 3068
3078 3078 3077 3077 3076 3075 3075 3074 3073 3072 3071 3070 3069 3067 3067 3066 3065 3063 3062 3060 3058 3056 3055 3054 3053 3052 3052 3051 3050 3049 3048 3047 3047 3046 3045 3044 3044 3043 3042 3042 3042 3042 3042 3042 3042 3042 3042 3041 3041 3042 3042 3042 3042 3043 3043 3043 3044 3044 3045 3045 3045 3045 3045 3045 3045 3046 3046 3047 3048 3049 3050 3052 3053 3054 3055 3057 3058 3058 3059 3060 3061 3062 3063 3064 3065
3076 3075 3075 3074 3073 3072 3072 3071 3071 3070 3069 3068 3066 3065 3064 3063 3063 3062 3061 3059 3057 3054 3052 3052 3052 3051 3050 3050 3049 3048 3047 3046 3046 3045 3044 3043 3043 3042 3041 3041 3041 3040 3040 3040 3041 3041 3041 3041 3041 3041 3042 3042 3042 3043 3043 3044 3044 3044 3044 3045 3045 3045 3045 3045 3045 3046 3046 3046 3046 3047 3048 3049 3051 3052 3053 3054 3055 3055 3056 3057 3058 3059 3060 3061 3062
3073 3072 3072 3071 3071 3070 3069 3069 3068 3067 3066 3065 3064 3063 3062 3061 3060 3059 3058 3057 3055 3053 3051 3051 3050 3050 3049 3048 3047 3047 3046 3045 3045 3044 3043 3043 3042 3041 3040 3040 3040 3040 3039 3039 3040 3040 3040 3040 3041 3041 3041 3041 3042 3042 3043 3043 3043 3044 3044 3044 3044 3044 3045 3045 3045 3046 3046 3046 3046 3046 3047 3048 3049 3050 3050 3051 3052 3053 3053 3054 3055 3056 3057 3058 3059
3070 3069 3069 3068 3068 3068 3067 3066 3065 3065 3064 3063 3061 3061 3060 3059 3058 3056 3055 3054 3053 3052 3051 3050 3050 3049 3048 3047 3046 3045 3044 3044 3044 3043 3042 3042 3041 3040 3040 3039 3039 3039 3039 3038 3038 3039 3039 3039 3040 3040 3040 3041 3041 3041 3042 3042 3043 3043 3043 3043 3043 3044 3044 3045 3045 3045 3046 3046 3046 3046 3047 3047 3047 3048 3049 3049 3050 3050 3051 3051 3052 3053 3054 3055 3056
3067 3067 3066 3066 3065 3065 3064 3064 3063 3062 3061 3060 3059 3058 3057 3056 3055 3054 3053 3052 3051 3050 3050 3049 3048 3048 3047 3046 3045 3044 3043 3042 3042 3041 3040 3040 3040 3040 3039 3038 3038 3037 3038 3038 3038 3038 3038 3038 3039 3039 3039 3039 3040 3040 3040 3040 3041 3041 3042 3042 3043 3043 3043 3043 3044 3044 3045 3045 3045 3046 3046 3046 3046 3047 3047 3047 3048 3048 3049 3049 3050 3051 3051 3052 3053
3064 3063 3063 3063 3063 3062 3062 3060 3059 3059 3058 3058 3057 3056 3055 3054 3053 3052 3051 3050 3049 3049 3048 3048 3047 3046 3046 3045 3044 3043 3042 3041 3040 3039 3038 3038 3038 3039 3038 3037 3037 3036 3035 3035 3036 3036 3036 3037 3037 3037 3037 3037 3038 3038 3038 3038 3039 3039 3040 3040 3041 3041 3042 3042 3042 3043 3043 3043 3044 3044 3044 3044 3044 3045 3045 3045 3046 3046 3047 3047 3048 3048 3049 3050 3050
3060 3060 3060 3060 3060 3059 3058 3057 3056 3056 3056 3055 3055 3054 3052 3051 3050 3049 3048 3048 3047 3047 3046 3046 3045 3044 3044 3043 3042 3041 3041 3040 3039 3038 3037 3036 3036 3037 3037 3036 3036 3036 3035 3034 3034 3034 3034 3034 3034 3035 3035 3035 3036 3036 3036 3036 3036 3037 3037 3038 3039 3039 3039 3040 3040 3040 3041 3041 3042 3042 3042 3042 3043 3043 3043 3043 3044 3044 3044 3045 3046 3046 3046 3047 3048
3057 3056 3056 3056 3056 3055 3055 3054 3054 3054 3053 3053 3052 3051 3049 3048 3048 3047 3046 3045 3044 3044 3044 3043 3043 3042 3041 3041 3040 3039 3038 3038 3037 3036 3035 3035 3034 3034 3034 3035 3035 3035 3035 3035 3034 3034 3033 3033 3032 3033 3033 3033 3033 3033 3033 3034 3034 3034 3035 3035 3036 3036 3037 3037 3037 3038 3038 3039 3039 3039 3040 3040 3040 3041 3041 3042 3042 3042 3042 3042 3043 3043 3044 3044 3044
3053 3053 3053 3054 3053 3052 3052 3051 3051 3051 3051 3050 3049 3047 3046 3045 3045 3044 3043 3042 3042 3041 3041 3041 3040 3039 3039 3038 3037 3037 3036 3035 3034 3034 3033 3033 3032 3032 3032 3032 3032 3033 3033 3033 3033 3033 3033 3032 3031 3031 3031 3031 3031 3031 3031 3031 3032 3032 3032 3033 3033 3034 3034 3034 3034 3035 3035 3036 3036 3037 3037 3038 3038 3038 3039 3039 3040 3040 3040 3040 3041 3041 3041 3041 3042
3050 3050 3050 3050 3050 3050 3049 3049 3049 3048 3047 3046 3045 3044 3044 3043 3042 3041 3041 3040 3039 3039 3038 3038 3037 3037 3036 3035 3034 3034 3033 3032 3031 3030 3030 3030 3030 3029 3029 3030 3030 3030 3030 3031 3031 3031 3031 3030 3030 3030 3029 3029 3029 3029 3030 3030 3030 3030 3030 3031 3031 3031 3031 3031 3031 3032 3032 3033 3033 3034 3035 3035 3036 3036 3037 3037 3037 3037 3037 3038 3038 3038 3039 3039 3039
3047 3047 3047 3047 3047 3047 3047 3046 3046 3045 3044 3043 3042 3042 3041 3040 3039 3039 3038 3038 3037 3036 3036 3035 3034 3034 3033 3033 3032 3031 3030 3029 3029 3028 3027 3027 3026 3026 3026 3026 3027 3027 3027 3027 3028 3028 3028 3028 3027 3027 3027 3027 3027 3027 3028 3028 3028 3028 3028 3029 3029 3029 3029 3029 3029 3029 3029 3030 3030 3031 3031 3032 3032 3033 3033 3033 3034 3034 3034 3034 3034 3035 3036 3036 3036
3045 3045 3045 3045 3045 3044 3044 3044 3043 3042 3041 3040 3039 3039 3038 3038 3037 3036 3036 3035 3034 3033 3032 3031 3031 3030 3030 3029 3029 3028 3028 3027 3026 3025 3025 3024 3024 3023 3023 3023 3023 3023 3023 3023 3024 3024 3025 3025 3024 3024 3023 3024 3024 3025 3025 3026 3026 3026 3026 3026 3026 3027 3026 3026 3026 3026 3026 3027 3027 3028 3028 3029 3029 3029 3029 3029 3030 3030 3031 3031 3031 3032 3032 3033 3033
3043 3044 3043 3043 3043 3042 3042 3041 3040 3039 3038 3037 3036 3036 3035 3035 3034 3033 3033 3032 3031 3030 3029 3028 3027 3027 3026 3026 3025 3024 3024 3023 3023 3022 3022 3021 3021 3020 3020 3020 3019 3019 3019 3019 3020 3020 3020 3021 3021 3020 3020 3020 3020 3021 3022 3022 3022 3022 3022 3023 3023 3024 3024 3024 3023 3023 3023 3024 3024 3024 3025 3026 3026 3026 3026 3026 3026 3026 3027 3027 3027 3028 3028 3029 3029
3041 3041 3041 3041 3040 3039 3039 3038 3037 3036 3035 3034 3033 3032 3032 3031 3030 3030 3029 3029 3028 3027 3026 3025 3024 3023 3022 3022 3021 3021 3020 3020 3019 3019 3018 3018 3017 3017 3016 3016 3016 3016 3016 3016 3016 3016 3016 3016 3017 3017 3017 3016 3017 3017 3017 3018 3018 3018 3018 3019 3019 3020 3020 3020 3019 3019 3019 3020 3020 3021 3021 3022 3022 3023 3023 3023 3023 3023 3023 3024 3024 3024 3025 3025 3025
3039 3039 3039 3038 3037 3036 3036 3035 3034 3033 3032 3031 3030 3029 3028 3027 3026 3025 3025 3024 3023 3022 3022 3021 3020 3019 3018 3018 3017 3016 3016 3015 3015 3015 3014 3014 3014 3013 3013 3012 3012 3012 3013 3013 3013 3012 3012 3012 3012 3012 3012 3012 3013 3013 3013 3014 3014 3014 3014 3015 3015 3015 3015 3015 3015 3015 3015 3015 3016 3016 3017 3017 3018 3018 3018 3019 3019 3020 3020 3021 3021 3021 3022 3022 3022
3038 3037 3037 3036 3035 3034 3033 3031 3030 3029 3028 3026 3025 3025 3024 3023 3022 3021 3020 3019 3018 3017 3017 3016 3015 3014 3014 3013 3012 3012 3011 3011 3011 3010 3010 3010 3009 3009 3008 3008 3008 3008 3008 3008 3008 3008 3008 3008 3008 3008 3008 3008 3008 3009 3009 3009 3009 3010 3010 3010 3011 3011 3011 3011 3011 3011 3011 3011 3011 3012 3012 3013 3013 3013 3013 3014 3014 3015 3016 3017 3017 3017 3018 3018 3018
3035 3035 3034 3033 3032 3031 3029 3028 3026 3025 3024 3022 3021 3020 3019 3018 3017 3016 3014 3013 3012 3011 3011 3010 3009 3008 3008 3008 3008 3008 3007 3007 3007 3006 3006 3006 3005 3005 3005 3004 3004 3004 3003 3004 3004 3004 3004 3003 3003 3003 3003 3003 3004 3004 3004 3004 3004 3004 3005 3005 3005 3005 3006 3006 3006 3006 3006 3006 3007 3007 3007 3008 3008 3009 3009 3009 3010 3010 3011 3012 3012 3013 3013 3013 3013
3032 3031 3031 3030 3028 3027 3025 3024 3022 3021 3020 3019 3018 3016 3014 3013 3011 3010 3009 3008 3007 3006 3005 3004 3003 3003 3003 3003 3003 3003 3003 3003 3003 3003 3002 3002 3001 3001 3000 3000 2999 2999 2999 2999 2999 2999 3000 3000 3000 3000 3000 3000 2999 2999 2999 2999 2999 2999 2999 3000 3000 3000 3001 3001 3001 3001 3001 3002 3002 3002 3003 3003 3004 3004 3004 3005 3005 3006 3006 3007 3007 3007 3008 3008 3008
3028 3028 3027 3026 3024 3023 3021 3019 3018 3017 3016 3015 3014 3012 3010 3008 3006 3006 3005 3004 3003 3001 3000 2999 2999 2998 2998 2998 2998 2998 2998 2998 2998 2998 2998 2997 2997 2996 2995 2995 2994 2994 2994 2994 2994 2995 2995 2995 2996 2996 2996 2995 2995 2995 2994 2994 2993 2993 2994 2994 2995 2995 2996 2996 2996 2996 2997 2997 2997 2997 2998 2998 2999 2999 2999 2999 3000 3001 3002 3002 3002 3003 3003 3003 3004
3025 3024 3022 3021 3020 3019 3017 3015 3014 3013 3012 3011 3010 3009 3007 3005 3004 3003 3001 3000 2999 2997 2997 2996 2995 2995 2994 2993 2993 2993 2993 2993 2993 2993 2993 2993 2992 2992 2991 2990 2989 2989 2989 2989 2989 2989 2990 2990 2991 2991 2991 2991 2990 2990 2989 2989 2988 2988 2988 2989 2989 2990 2990 2991 2991 2991 2991 2992 2992 2993 2993 2993 2993 2993 2993 2994 2994 2995 2996 2997 2998 2998 2998 2999 2999